CAPE
0 11 1 0 77 354 510 764 942 1361 1377 1515 900 1012 1080 1070 1086 1124 985 1061 1204 867 676 619 447 397 376 398 209 70 0 0 0
0 0 1 0 0 7 129 294 563 1188 1543 1262 783 876 944 814 842 836 551 835 1093 1177 786 558 522 440 395 505 115 74 21 0 0
0 0 0 0 0 0 0 0 140 581 1274 1020 707 767 951 656 536 487 564 614 764 917 1010 746 528 606 510 443 152 89 149 3 0
0 0 0 0 0 0 0 0 0 46 392 478 506 525 545 363 264 223 415 805 797 935 885 870 846 672 575 554 336 154 167 26 0
0 0 0 0 0 0 0 0 0 0 0 6 54 105 249 208 12 4 120 489 449 855 915 910 943 846 784 750 663 342 111 152 23
0 0 0 0 0 0 0 0 0 0 0 0 0 0 10 42 0 0 0 27 199 364 488 478 562 643 836 918 856 349 155 34 101
0 0 0 0 0 0 0 0 0 0 0 0 0 0 0 0 0 0 0 0 3 9 22 61 84 186 275 389 808 732 337 60 110
0 0 0 0 0 0 0 0 0 0 0 0 0 0 0 0 0 0 0 0 0 0 0 0 0 0 2 115 368 477 712 189 197
0 0 0 0 0 0 0 0 0 0 0 0 0 0 0 0 0 0 0 0 0 0 0 0 0 0 0 0 0 30 302 625 483
0 0 0 0 0 0 0 0 0 0 0 0 0 0 0 0 0 0 0 0 0 0 0 0 0 0 0 0 0 0 0 2 190
0 0 0 0 0 0 0 0 0 0 0 0 0 0 0 0 0 0 0 0 0 0 0 0 0 0 0 0 0 0 0 0 0
0 0 0 0 0 0 0 0 0 0 0 0 0 0 0 0 0 0 0 0 0 0 0 0 0 0 0 0 0 0 0 0 0
0 0 0 0 0 0 0 0 0 0 0 0 0 0 0 0 0 0 0 0 0 0 0 0 0 0 0 0 0 0 0 0 0
0 0 0 0 0 0 0 0 0 0 0 0 0 0 0 0 0 0 0 0 0 0 0 0 0 0 0 0 0 0 0 0 0
0 0 0 0 0 0 0 0 0 0 0 0 0 0 0 0 0 0 0 0 0 0 0 0 0 0 0 0 0 0 0 0 0
0 0 0 0 0 0 0 0 0 0 0 0 0 0 0 0 0 0 0 0 0 0 0 0 0 0 0 0 0 0 0 0 0
0 0 0 0 0 0 0 0 0 0 0 0 0 0 0 0 0 0 0 0 0 0 0 0 0 0 0 0 0 0 0 0 0
0 0 0 0 0 0 0 0 0 0 0 0 0 0 0 0 0 0 0 0 0 0 0 0 0 0 0 0 0 0 0 0 0
0 0 0 0 0 0 0 0 0 0 0 0 0 0 0 0 0 0 0 0 0 0 0 0 0 0 0 0 0 0 0 0 0
0 0 0 0 0 0 0 0 0 0 0 0 0 0 0 0 0 0 0 0 0 0 0 0 0 0 0 0 0 0 0 0 0
CIN
-0 -468 -0 -0 -348 -194 -140 -61 -12 -0 -0 -2 -24 -17 -11 -16 -17 -19 -15 -6 -0 -2 -19 -15 -38 -36 -28 -19 -54 -85 -0 -0 -0
-0 -0 -0 -0 -0 -101 -330 -246 -141 -2 -0 -7 -33 -16 -17 -37 -36 -26 -52 -8 -0 -0 -7 -26 -28 -35 -34 -7 -89 -86 -122 -0 -0
-0 -0 -0 -0 -0 -0 -0 -0 -354 -130 -7 -9 -47 -28 -7 -56 -84 -84 -51 -31 -13 -2 -0 -10 -30 -13 -19 -17 -89 -118 -50 -93 -0
-0 -0 -0 -0 -0 -0 -0 -0 -0 -213 -192 -133 -107 -75 -55 -144 -203 -225 -117 -25 -20 -2 -7 -4 -1 -5 -13 -6 -38 -102 -65 -228 -0
-0 -0 -0 -0 -0 -0 -0 -0 -0 -0 -0 -453 -390 -366 -221 -278 -321 -298 -322 -88 -110 -16 -9 -6 -1 -1 -1 -0 -1 -39 -164 -104 -264
-0 -0 -0 -0 -0 -0 -0 -0 -0 -0 -0 -0 -0 -0 -244 -309 -0 -0 -0 -489 -257 -152 -89 -71 -36 -17 -0 -0 -0 -41 -133 -300 -154
-0 -0 -0 -0 -0 -0 -0 -0 -0 -0 -0 -0 -0 -0 -0 -0 -0 -0 -0 -0 -77 -208 -164 -372 -327 -213 -138 -69 -0 -1 -37 -250 -155
-0 -0 -0 -0 -0 -0 -0 -0 -0 -0 -0 -0 -0 -0 -0 -0 -0 -0 -0 -0 -0 -0 -0 -0 -0 -0 -61 -249 -54 -13 -0 -120 -106
-0 -0 -0 -0 -0 -0 -0 -0 -0 -0 -0 -0 -0 -0 -0 -0 -0 -0 -0 -0 -0 -0 -0 -0 -0 -0 -0 -0 -0 -275 -71 -4 -14
-0 -0 -0 -0 -0 -0 -0 -0 -0 -0 -0 -0 -0 -0 -0 -0 -0 -0 -0 -0 -0 -0 -0 -0 -0 -0 -0 -0 -0 -0 -0 -54 -123
-0 -0 -0 -0 -0 -0 -0 -0 -0 -0 -0 -0 -0 -0 -0 -0 -0 -0 -0 -0 -0 -0 -0 -0 -0 -0 -0 -0 -0 -0 -0 -0 -0
-0 -0 -0 -0 -0 -0 -0 -0 -0 -0 -0 -0 -0 -0 -0 -0 -0 -0 -0 -0 -0 -0 -0 -0 -0 -0 -0 -0 -0 -0 -0 -0 -0
-0 -0 -0 -0 -0 -0 -0 -0 -0 -0 -0 -0 -0 -0 -0 -0 -0 -0 -0 -0 -0 -0 -0 -0 -0 -0 -0 -0 -0 -0 -0 -0 -0
-0 -0 -0 -0 -0 -0 -0 -0 -0 -0 -0 -0 -0 -0 -0 -0 -0 -0 -0 -0 -0 -0 -0 -0 -0 -0 -0 -0 -0 -0 -0 -0 -0
-0 -0 -0 -0 -0 -0 -0 -0 -0 -0 -0 -0 -0 -0 -0 -0 -0 -0 -0 -0 -0 -0 -0 -0 -0 -0 -0 -0 -0 -0 -0 -0 -0
-0 -0 -0 -0 -0 -0 -0 -0 -0 -0 -0 -0 -0 -0 -0 -0 -0 -0 -0 -0 -0 -0 -0 -0 -0 -0 -0 -0 -0 -0 -0 -0 -0
-0 -0 -0 -0 -0 -0 -0 -0 -0 -0 -0 -0 -0 -0 -0 -0 -0 -0 -0 -0 -0 -0 -0 -0 -0 -0 -0 -0 -0 -0 -0 -0 -0
-0 -0 -0 -0 -0 -0 -0 -0 -0 -0 -0 -0 -0 -0 -0 -0 -0 -0 -0 -0 -0 -0 -0 -0 -0 -0 -0 -0 -0 -0 -0 -0 -0
-0 -0 -0 -0 -0 -0 -0 -0 -0 -0 -0 -0 -0 -0 -0 -0 -0 -0 -0 -0 -0 -0 -0 -0 -0 -0 -0 -0 -0 -0 -0 -0 -0
-0 -0 -0 -0 -0 -0 -0 -0 -0 -0 -0 -0 -0 -0 -0 -0 -0 -0 -0 -0 -0 -0 -0 -0 -0 -0 -0 -0 -0 -0 -0 -0 -0
Wind_Speed
23 23 22 21 20 20 21 21 22 22 20 20 20 20 17 21 21 21 21 20 21 20 18 16 17 17 18 20 22 18 19 21 21
22 22 22 21 20 20 20 20 20 21 19 19 19 19 19 19 19 20 21 19 21 19 18 17 16 15 14 15 18 20 21 20 21
20 21 21 21 20 20 19 19 19 19 19 18 18 18 18 18 18 19 20 19 20 19 18 17 15 14 14 14 15 17 17 18 19
19 20 20 20 19 19 19 19 18 18 17 18 17 17 18 17 17 18 20 21 20 19 18 17 18 16 14 13 15 17 18 18 17
17 18 19 19 19 18 18 18 18 18 17 17 16 17 18 17 17 18 20 20 21 22 20 18 18 18 16 14 13 15 15 15 15
15 17 18 18 18 17 17 16 16 16 17 17 16 17 17 17 17 19 20 20 20 20 19 19 19 19 20 19 12 13 15 15 14
12 14 16 17 18 17 16 16 16 14 13 16 17 17 16 16 17 18 19 19 19 19 19 19 19 19 20 20 20 13 13 15 14
10 11 13 15 14 14 15 16 17 16 16 15 16 16 17 15 16 17 18 19 19 18 19 19 19 19 19 20 20 20 15 14 12
5 8 9 12 14 15 15 15 13 14 16 16 15 15 16 16 15 17 18 18 18 18 19 19 19 19 20 20 20 20 21 20 15
6 8 10 11 13 14 15 14 13 14 15 16 16 16 16 17 14 15 17 17 18 18 19 20 20 20 20 20 20 21 22 22 22
8 8 9 11 12 13 14 14 15 14 13 14 14 15 15 15 15 14 15 16 17 18 19 20 20 20 20 20 21 22 23 23 23
10 10 10 11 12 12 14 14 15 15 15 14 13 13 15 14 14 15 14 14 15 17 18 20 20 20 21 21 22 22 23 24 24
12 12 12 12 12 14 14 14 15 15 15 16 13 13 13 12 13 15 16 16 15 16 18 20 21 20 21 22 22 23 23 24 25
15 14 14 13 13 14 14 15 15 15 15 16 16 15 13 12 12 12 13 12 14 16 19 20 22 20 22 22 23 23 24 26 27
16 15 14 13 13 14 14 15 15 16 16 17 19 16 14 13 14 13 12 11 12 15 16 19 22 18 23 24 25 24 26 27 28
18 17 16 15 15 15 14 15 15 16 17 19 20 17 14 13 11 13 14 15 11 14 15 17 20 22 23 26 25 26 29 28 28
20 19 19 17 16 16 14 14 16 16 14 17 19 21 18 15 13 11 12 17 16 17 18 20 21 23 24 24 24 25 26 28 31
21 21 19 18 17 17 15 15 15 15 16 15 17 19 20 17 13 13 14 16 18 18 19 24 24 24 24 26 27 25 25 30 32
23 22 21 20 19 18 17 16 16 16 16 16 17 19 19 20 22 18 15 17 18 22 24 23 25 27 27 25 25 28 31 30 31
26 24 22 21 20 19 17 17 16 16 17 17 17 17 18 19 19 23 22 22 24 23 25 27 28 26 26 27 27 27 28 31 34
Wind_Direction
54 58 52 34 26 31 38 40 41 37 49 53 58 39 344 37 27 27 21 4 47 74 91 102 86 77 58 54 38 81 72 48 32
50 53 54 43 28 23 26 32 34 29 55 48 50 45 6 24 27 24 16 351 16 36 58 70 86 101 109 91 64 54 50 49 46
45 45 47 44 34 24 20 20 23 29 31 32 21 14 22 25 22 3 354 13 12 17 27 47 75 92 101 98 90 82 83 85 73
45 42 41 39 34 27 21 17 17 20 19 19 15 9 12 22 12 12 354 0 8 8 11 17 21 45 67 87 82 70 72 80 87
45 41 37 34 30 27 25 23 18 16 17 18 18 7 360 19 5 1 351 355 350 354 2 8 3 7 22 53 73 71 75 82 91
34 33 34 32 29 28 25 26 32 28 18 12 14 7 1 357 3 355 345 349 356 355 354 353 352 351 351 350 48 52 55 61 82
34 28 29 29 29 30 27 24 18 24 32 10 358 1 5 6 0 354 349 350 355 357 354 349 347 347 347 343 345 13 33 36 61
16 27 25 22 29 33 29 19 4 4 10 12 11 2 358 5 1 357 349 347 350 354 349 346 345 342 342 342 342 338 353 12 34
7 8 19 12 9 7 8 12 24 22 8 7 10 6 358 1 3 359 353 346 347 348 344 340 337 336 335 335 337 335 332 332 351
330 344 350 359 357 357 357 1 5 5 2 1 1 4 1 355 5 359 355 349 345 345 342 336 334 332 330 330 330 330 329 326 325
305 319 331 339 345 347 350 349 345 349 356 359 360 358 360 357 355 1 358 354 350 346 341 336 333 332 330 328 327 325 323 322 323
287 299 311 320 329 335 338 340 340 338 338 345 355 357 354 354 354 355 356 354 352 349 341 335 332 330 328 328 327 325 323 320 318
277 287 295 306 314 321 325 328 330 331 333 333 340 346 351 352 349 349 348 348 349 347 341 335 330 328 327 326 325 326 326 323 318
273 278 287 294 302 309 315 318 322 324 325 326 329 334 339 345 344 345 348 348 345 340 333 332 326 327 324 323 322 323 323 321 317
266 272 276 282 292 299 304 309 313 317 318 319 321 325 330 336 335 334 338 343 345 343 339 332 326 327 322 320 319 320 320 318 316
263 266 270 273 280 287 293 301 304 309 313 316 316 318 323 330 336 334 333 334 339 341 340 333 329 325 323 319 319 317 314 314 313
260 264 266 268 275 280 284 291 299 303 305 313 316 316 319 323 329 332 334 334 336 336 333 328 326 324 322 321 320 319 317 314 311
261 262 264 265 269 272 275 281 288 293 300 302 310 314 315 324 329 329 329 330 331 334 332 325 322 323 322 320 319 320 317 313 311
260 261 262 264 267 268 271 277 280 290 292 299 299 307 316 316 319 325 328 328 328 328 326 327 325 322 320 321 320 317 313 312 311
258 259 258 260 262 266 266 271 274 279 290 292 299 301 308 313 315 315 317 321 323 327 326 323 322 322 322 320 319 318 316 313 310